QPF
0.00 0.00 0.00 0.00 0.01 0.05 0.00 0.00 0.00 0.00 0.01 0.03 0.00 0.00 0.00 0.00 0.06 0.11 0.02 0.02 0.00 0.01 0.00 0.01 0.01 0.00 0.00 0.00 0.00 0.03 0.06 0.07 0.04 0.08 0.05 0.05 0.03 0.00 0.01 0.04 0.03 0.04 0.06
0.00 0.00 0.00 0.00 0.00 0.01 0.00 0.00 0.00 0.00 0.00 0.00 0.00 0.04 0.03 0.00 0.02 0.06 0.06 0.10 0.08 0.02 0.00 0.02 0.12 0.06 0.08 0.00 0.00 0.00 0.00 0.02 0.02 0.01 0.03 0.03 0.03 0.04 0.01 0.03 0.00 0.00 0.00
0.00 0.00 0.00 0.00 0.00 0.00 0.00 0.00 0.00 0.00 0.00 0.00 0.00 0.02 0.04 0.02 0.05 0.03 0.13 0.17 0.16 0.14 0.03 0.00 0.03 0.04 0.06 0.00 0.00 0.00 0.01 0.09 0.02 0.02 0.01 0.02 0.02 0.00 0.01 0.03 0.04 0.05 0.02
0.00 0.00 0.00 0.00 0.00 0.00 0.01 0.00 0.00 0.00 0.00 0.00 0.00 0.01 0.02 0.01 0.05 0.13 0.12 0.14 0.20 0.16 0.05 0.00 0.00 0.00 0.00 0.00 0.00 0.00 0.00 0.02 0.00 0.08 0.03 0.00 0.00 0.00 0.01 0.04 0.06 0.19 0.11
0.00 0.00 0.00 0.00 0.00 0.01 0.00 0.00 0.00 0.00 0.00 0.00 0.00 0.00 0.00 0.00 0.00 0.00 0.01 0.02 0.02 0.01 0.00 0.00 0.06 0.08 0.04 0.01 0.00 0.00 0.00 0.01 0.00 0.00 0.00 0.00 0.00 0.00 0.00 0.00 0.00 0.01 0.00
0.00 0.01 0.00 0.00 0.00 0.00 0.00 0.00 0.00 0.00 0.00 0.00 0.00 0.00 0.00 0.00 0.00 0.00 0.00 0.00 0.00 0.00 0.00 0.01 0.05 0.08 0.04 0.07 0.07 0.04 0.01 0.00 0.00 0.00 0.00 0.00 0.00 0.00 0.00 0.00 0.00 0.00 0.00
0.00 0.00 0.00 0.00 0.00 0.00 0.00 0.00 0.00 0.00 0.00 0.00 0.00 0.00 0.00 0.00 0.00 0.00 0.00 0.00 0.00 0.00 0.00 0.00 0.00 0.00 0.00 0.00 0.00 0.00 0.00 0.00 0.00 0.00 0.00 0.00 0.00 0.00 0.00 0.00 0.00 0.00 0.00
0.00 0.00 0.00 0.00 0.00 0.00 0.00 0.00 0.00 0.00 0.00 0.00 0.00 0.00 0.00 0.00 0.00 0.00 0.00 0.00 0.00 0.00 0.00 0.00 0.00 0.00 0.00 0.00 0.00 0.00 0.00 0.00 0.00 0.00 0.00 0.00 0.00 0.00 0.00 0.00 0.00 0.00 0.00
0.00 0.00 0.00 0.00 0.00 0.00 0.00 0.00 0.00 0.00 0.00 0.00 0.00 0.00 0.00 0.00 0.00 0.00 0.00 0.00 0.00 0.00 0.00 0.00 0.00 0.00 0.00 0.00 0.00 0.00 0.00 0.00 0.00 0.00 0.00 0.00 0.00 0.00 0.00 0.00 0.00 0.00 0.00
0.00 0.00 0.00 0.00 0.00 0.00 0.02 0.06 0.03 0.00 0.00 0.00 0.00 0.00 0.00 0.00 0.00 0.00 0.00 0.00 0.00 0.00 0.00 0.00 0.00 0.00 0.00 0.00 0.00 0.00 0.00 0.00 0.00 0.00 0.00 0.00 0.00 0.00 0.00 0.00 0.00 0.00 0.00
0.00 0.01 0.14 0.23 0.15 0.12 0.12 0.14 0.08 0.01 0.00 0.00 0.00 0.00 0.00 0.00 0.00 0.00 0.00 0.00 0.00 0.00 0.00 0.00 0.00 0.00 0.00 0.00 0.00 0.00 0.00 0.00 0.00 0.00 0.00 0.00 0.00 0.00 0.00 0.00 0.00 0.00 0.00
0.29 0.61 0.53 0.39 0.25 0.22 0.16 0.13 0.03 0.06 0.08 0.04 0.01 0.00 0.00 0.00 0.00 0.00 0.00 0.00 0.00 0.00 0.00 0.00 0.00 0.00 0.00 0.00 0.00 0.00 0.00 0.00 0.00 0.00 0.00 0.00 0.00 0.00 0.00 0.00 0.00 0.00 0.00
0.67 0.70 0.45 0.15 0.10 0.20 0.27 0.19 0.09 0.07 0.11 0.06 0.01 0.00 0.00 0.00 0.00 0.00 0.00 0.00 0.00 0.00 0.00 0.00 0.00 0.00 0.00 0.00 0.00 0.00 0.00 0.00 0.00 0.00 0.00 0.00 0.00 0.00 0.00 0.00 0.00 0.00 0.00
0.88 1.26 1.24 0.53 0.18 0.12 0.22 0.18 0.15 0.10 0.03 0.00 0.00 0.00 0.00 0.00 0.00 0.00 0.00 0.00 0.00 0.00 0.00 0.00 0.00 0.00 0.00 0.00 0.00 0.00 0.00 0.00 0.00 0.00 0.00 0.00 0.00 0.00 0.00 0.00 0.00 0.00 0.00
0.53 0.46 0.39 0.48 0.30 0.18 0.17 0.19 0.18 0.08 0.04 0.00 0.00 0.00 0.00 0.00 0.00 0.00 0.00 0.00 0.00 0.00 0.00 0.00 0.00 0.00 0.00 0.00 0.00 0.00 0.00 0.00 0.00 0.00 0.00 0.00 0.00 0.00 0.00 0.00 0.00 0.00 0.00
0.05 0.12 0.14 0.08 0.12 0.16 0.14 0.14 0.09 0.04 0.01 0.00 0.00 0.00 0.00 0.00 0.00 0.00 0.00 0.00 0.00 0.00 0.00 0.00 0.00 0.00 0.00 0.00 0.00 0.00 0.00 0.00 0.00 0.00 0.00 0.00 0.00 0.00 0.00 0.00 0.00 0.00 0.00
0.08 0.16 0.12 0.06 0.05 0.04 0.04 0.02 0.01 0.01 0.00 0.00 0.00 0.00 0.00 0.00 0.00 0.00 0.00 0.00 0.00 0.00 0.00 0.00 0.00 0.00 0.00 0.00 0.00 0.00 0.00 0.00 0.00 0.00 0.00 0.00 0.00 0.00 0.00 0.00 0.00 0.00 0.00
0.06 0.16 0.15 0.18 0.15 0.08 0.02 0.01 0.00 0.00 0.00 0.00 0.00 0.00 0.00 0.00 0.00 0.00 0.00 0.00 0.00 0.00 0.00 0.00 0.00 0.00 0.00 0.00 0.00 0.00 0.00 0.00 0.00 0.00 0.00 0.00 0.00 0.00 0.00 0.00 0.00 0.00 0.00
0.19 0.69 0.87 0.59 0.41 0.47 0.18 0.03 0.01 0.01 0.01 0.01 0.00 0.00 0.00 0.00 0.00 0.00 0.00 0.00 0.00 0.00 0.00 0.00 0.00 0.00 0.00 0.00 0.00 0.00 0.00 0.00 0.00 0.00 0.00 0.00 0.00 0.00 0.00 0.00 0.00 0.00 0.00
0.19 0.40 0.75 0.65 0.50 0.48 0.21 0.05 0.05 0.03 0.01 0.01 0.01 0.01 0.00 0.00 0.00 0.00 0.00 0.00 0.00 0.00 0.00 0.00 0.00 0.00 0.00 0.00 0.00 0.00 0.00 0.00 0.00 0.00 0.00 0.00 0.00 0.00 0.00 0.00 0.00 0.00 0.00
0.01 0.05 0.13 0.14 0.09 0.09 0.12 0.11 0.05 0.03 0.01 0.01 0.01 0.00 0.00 0.00 0.00 0.00 0.00 0.00 0.00 0.00 0.00 0.00 0.00 0.00 0.00 0.00 0.00 0.00 0.00 0.00 0.00 0.00 0.00 0.00 0.00 0.00 0.00 0.00 0.00 0.00 0.00
0.08 0.11 0.15 0.12 0.12 0.10 0.11 0.10 0.05 0.02 0.00 0.00 0.00 0.00 0.00 0.00 0.00 0.00 0.00 0.00 0.00 0.00 0.00 0.00 0.00 0.00 0.00 0.00 0.00 0.00 0.00 0.00 0.00 0.00 0.00 0.00 0.00 0.00 0.00 0.00 0.00 0.00 0.00
0.01 0.04 0.09 0.10 0.12 0.13 0.12 0.13 0.11 0.05 0.01 0.00 0.00 0.00 0.00 0.00 0.00 0.00 0.00 0.00 0.00 0.00 0.00 0.00 0.00 0.00 0.00 0.00 0.00 0.00 0.00 0.00 0.00 0.00 0.00 0.00 0.00 0.00 0.00 0.00 0.00 0.00 0.00
0.01 0.01 0.05 0.09 0.07 0.08 0.08 0.07 0.07 0.04 0.03 0.04 0.07 0.03 0.01 0.00 0.00 0.00 0.00 0.00 0.00 0.00 0.00 0.00 0.00 0.00 0.00 0.00 0.00 0.00 0.00 0.00 0.00 0.00 0.00 0.00 0.00 0.00 0.00 0.00 0.00 0.00 0.00
0.00 0.01 0.04 0.06 0.12 0.10 0.08 0.05 0.06 0.05 0.02 0.02 0.02 0.01 0.00 0.00 0.00 0.00 0.00 0.00 0.00 0.00 0.00 0.00 0.00 0.00 0.00 0.00 0.00 0.00 0.00 0.00 0.00 0.00 0.00 0.00 0.00 0.00 0.00 0.00 0.00 0.00 0.00
0.01 0.02 0.02 0.02 0.06 0.14 0.12 0.05 0.02 0.00 0.00 0.00 0.00 0.00 0.00 0.00 0.00 0.00 0.00 0.00 0.00 0.00 0.00 0.00 0.00 0.00 0.00 0.00 0.00 0.00 0.00 0.00 0.00 0.00 0.00 0.00 0.00 0.00 0.00 0.00 0.00 0.00 0.00
MSLP
1008.49 1008.91 1009.15 1009.26 1010.47 1010.89 1011.03 1011.19 1011.33 1011.30 1011.42 1011.56 1011.84 1012.27 1012.40 1012.46 1012.37 1012.61 1012.82 1013.00 1013.29 1013.48 1013.58 1013.91 1014.05 1014.27 1014.60 1014.74 1014.82 1014.97 1015.34 1015.56 1016.10 1015.92 1015.76 1015.40 1015.32 1015.38 1015.51 1015.85 1016.02 1016.17 1016.26
1008.08 1008.37 1008.88 1009.44 1010.12 1010.47 1010.62 1010.76 1010.86 1010.88 1011.06 1011.24 1011.59 1012.14 1012.34 1012.41 1012.38 1012.49 1012.56 1012.78 1013.09 1013.34 1013.52 1013.77 1013.90 1014.05 1014.35 1014.51 1014.73 1014.86 1014.96 1015.10 1015.42 1015.62 1015.59 1015.42 1015.35 1015.30 1015.38 1015.54 1015.52 1015.49 1015.60
1007.93 1008.29 1008.91 1009.42 1009.75 1010.01 1010.07 1010.26 1010.49 1010.66 1010.93 1011.17 1011.64 1012.04 1012.16 1012.19 1012.36 1012.32 1012.58 1012.66 1012.91 1013.00 1013.11 1013.30 1013.38 1013.76 1014.26 1014.41 1014.46 1014.52 1014.75 1014.96 1015.23 1015.37 1015.47 1015.36 1015.37 1015.43 1015.46 1015.41 1015.23 1015.25 1015.27
1008.13 1008.48 1008.81 1009.18 1009.34 1009.48 1009.74 1010.05 1010.33 1010.72 1010.93 1011.19 1011.57 1011.85 1011.94 1012.12 1012.28 1012.47 1012.57 1012.67 1012.88 1012.91 1013.06 1013.35 1013.49 1013.62 1013.86 1014.20 1014.38 1014.30 1014.39 1014.76 1015.13 1015.48 1015.61 1015.59 1015.61 1015.56 1015.60 1015.78 1015.85 1015.86 1015.79
1008.07 1008.50 1008.59 1008.82 1009.08 1009.29 1009.69 1010.08 1010.42 1010.79 1011.06 1011.44 1011.83 1012.07 1012.20 1012.29 1012.45 1012.55 1012.64 1012.78 1013.01 1013.34 1013.47 1013.62 1013.83 1013.94 1014.11 1014.25 1014.47 1014.54 1014.44 1014.70 1014.94 1015.35 1015.69 1015.73 1015.76 1015.80 1015.87 1015.99 1016.09 1016.19 1016.36
1007.74 1008.16 1008.38 1008.63 1008.93 1009.33 1009.71 1010.12 1010.51 1010.83 1011.24 1011.72 1012.18 1012.36 1012.56 1012.80 1012.87 1012.66 1012.78 1012.93 1013.00 1013.19 1013.63 1014.02 1014.38 1014.47 1014.73 1014.76 1014.91 1014.75 1014.64 1014.78 1014.96 1015.36 1015.81 1015.88 1016.03 1016.02 1016.13 1016.33 1016.45 1016.70 1016.84
1006.98 1007.52 1008.06 1008.34 1008.63 1009.09 1009.52 1009.98 1010.47 1010.93 1011.37 1011.97 1012.46 1012.78 1013.13 1013.22 1013.19 1013.10 1013.02 1013.02 1013.17 1013.50 1013.80 1014.29 1014.63 1015.05 1015.25 1015.33 1015.26 1015.13 1015.02 1014.96 1014.92 1015.13 1015.49 1015.74 1015.94 1015.95 1016.27 1016.63 1016.80 1016.95 1016.99
1006.87 1007.08 1007.52 1008.07 1008.44 1008.84 1009.38 1009.86 1010.38 1010.91 1011.53 1012.05 1012.43 1012.77 1013.16 1013.48 1013.43 1013.36 1013.39 1013.43 1013.54 1013.70 1013.95 1014.30 1014.70 1015.19 1015.38 1015.44 1015.51 1015.63 1015.50 1015.29 1015.10 1015.08 1015.20 1015.33 1015.45 1015.79 1016.15 1016.40 1016.57 1016.87 1017.07
1006.27 1006.72 1007.04 1007.43 1008.32 1008.89 1009.39 1009.84 1010.41 1010.92 1011.49 1011.89 1012.29 1012.57 1012.92 1013.35 1013.33 1013.37 1013.51 1013.65 1013.99 1014.34 1014.60 1014.85 1014.99 1015.15 1015.35 1015.43 1015.68 1015.87 1015.77 1015.64 1015.28 1015.27 1015.17 1015.23 1015.33 1015.59 1015.96 1016.48 1016.82 1017.04 1017.18
1005.44 1005.92 1006.76 1007.26 1007.60 1008.15 1009.09 1009.86 1010.17 1010.42 1010.79 1011.43 1012.09 1012.44 1012.76 1013.21 1013.32 1013.29 1013.49 1013.91 1014.51 1014.85 1015.03 1015.13 1015.27 1015.22 1015.37 1015.47 1015.69 1016.06 1015.99 1015.98 1015.76 1015.62 1015.71 1015.74 1015.64 1015.70 1015.83 1016.00 1016.37 1016.90 1017.20
1004.77 1005.75 1006.52 1007.18 1008.12 1008.93 1009.17 1009.60 1010.45 1010.97 1011.13 1011.75 1012.15 1012.60 1012.99 1013.14 1013.34 1013.34 1013.61 1013.84 1014.12 1014.71 1015.22 1015.42 1015.43 1015.48 1015.57 1015.57 1015.80 1016.15 1016.21 1016.17 1015.99 1015.81 1015.86 1015.95 1016.11 1016.19 1016.26 1016.17 1016.21 1016.56 1017.07
1005.34 1006.14 1007.12 1007.72 1008.59 1009.03 1009.20 1009.55 1009.91 1010.46 1011.19 1011.70 1012.18 1012.76 1012.95 1013.06 1013.07 1013.20 1013.46 1013.86 1014.07 1014.37 1014.84 1015.14 1015.45 1015.66 1015.65 1015.65 1015.91 1016.19 1016.29 1016.29 1016.29 1016.29 1016.39 1016.50 1016.59 1016.56 1016.53 1016.46 1016.34 1016.41 1016.44
1006.11 1007.29 1007.48 1008.75 1008.96 1009.51 1009.71 1009.62 1009.99 1010.06 1010.68 1011.02 1011.56 1012.16 1012.64 1012.84 1013.15 1013.39 1013.54 1013.72 1014.20 1014.53 1014.62 1014.82 1015.23 1015.56 1015.79 1015.86 1015.93 1016.14 1016.29 1016.29 1016.31 1016.55 1016.66 1016.69 1016.59 1016.45 1016.44 1016.57 1016.52 1016.50 1016.44
1006.18 1006.07 1006.60 1007.36 1008.78 1009.84 1009.71 1009.87 1009.61 1009.66 1010.26 1010.82 1011.44 1011.83 1012.30 1012.76 1013.03 1013.39 1013.61 1013.92 1014.12 1014.58 1014.68 1014.66 1015.24 1015.41 1015.53 1015.74 1015.91 1015.99 1016.14 1016.21 1016.25 1016.48 1016.60 1016.75 1016.56 1016.66 1016.72 1016.67 1016.87 1016.73 1016.91
1004.68 1004.40 1006.40 1007.38 1007.41 1008.85 1009.44 1009.46 1009.58 1009.47 1009.65 1010.03 1010.93 1011.33 1012.02 1012.45 1012.62 1012.85 1013.35 1013.72 1014.09 1014.44 1014.40 1014.59 1015.43 1015.60 1015.36 1015.66 1015.88 1016.13 1016.08 1016.12 1016.37 1016.42 1016.47 1016.54 1016.81 1016.84 1016.79 1016.80 1016.98 1017.10 1017.01
1004.86 1005.21 1005.57 1006.19 1006.85 1007.54 1008.25 1009.53 1009.92 1009.70 1009.74 1009.87 1010.44 1010.96 1011.70 1011.79 1012.18 1012.55 1012.95 1013.39 1013.56 1013.86 1014.33 1014.70 1015.03 1015.05 1015.11 1015.37 1015.59 1015.92 1015.66 1015.75 1016.24 1016.44 1016.44 1016.49 1016.64 1016.70 1016.81 1016.97 1017.02 1016.98 1017.28
1004.82 1005.46 1006.07 1006.29 1006.69 1007.05 1007.97 1008.85 1009.53 1010.18 1009.87 1010.24 1010.47 1010.98 1011.51 1011.72 1012.04 1012.37 1012.72 1013.34 1013.69 1014.05 1014.27 1014.33 1014.41 1014.45 1014.51 1014.80 1015.20 1014.93 1015.21 1015.52 1015.82 1016.11 1016.23 1016.33 1016.45 1016.70 1016.83 1016.96 1017.06 1017.06 1017.37
1005.20 1005.57 1005.99 1006.24 1006.36 1006.75 1007.15 1008.10 1008.60 1009.03 1009.92 1010.69 1011.08 1011.22 1011.28 1011.68 1011.98 1012.27 1012.70 1013.19 1013.97 1014.21 1014.06 1014.09 1014.11 1014.25 1014.34 1014.48 1014.58 1014.74 1015.11 1015.45 1015.74 1015.84 1016.09 1016.12 1016.28 1016.56 1016.66 1016.80 1017.03 1017.16 1017.49
1004.86 1005.33 1005.73 1005.94 1005.88 1006.35 1005.33 1007.26 1008.25 1008.67 1009.59 1010.31 1011.18 1011.46 1011.70 1011.95 1012.20 1012.75 1012.85 1012.90 1013.26 1013.47 1013.59 1013.66 1013.79 1013.94 1013.99 1014.03 1014.22 1014.52 1014.83 1015.14 1015.28 1015.58 1015.76 1015.86 1016.07 1016.37 1016.57 1016.72 1016.88 1017.05 1017.31
1004.49 1004.99 1005.27 1005.17 1005.53 1005.53 1006.07 1007.47 1007.75 1008.68 1009.26 1009.84 1010.66 1011.00 1011.62 1012.09 1012.33 1012.59 1012.85 1012.87 1013.05 1012.89 1012.89 1013.07 1013.18 1013.38 1013.56 1013.75 1013.99 1014.25 1014.61 1014.83 1015.10 1015.29 1015.50 1015.65 1015.75 1015.96 1016.38 1016.50 1016.67 1016.85 1016.93
1004.84 1005.11 1005.39 1005.34 1005.60 1006.17 1006.53 1006.71 1007.52 1008.33 1008.89 1009.39 1009.97 1010.24 1010.66 1011.12 1011.59 1011.77 1012.16 1012.36 1012.35 1012.29 1012.46 1012.73 1012.93 1013.11 1013.23 1013.38 1013.54 1013.84 1014.24 1014.39 1014.53 1014.76 1015.10 1015.28 1015.52 1015.89 1015.87 1016.01 1016.25 1016.40 1016.65
1004.73 1004.83 1004.95 1005.16 1005.22 1005.58 1006.22 1006.63 1006.89 1006.74 1007.70 1008.50 1009.13 1009.78 1010.39 1010.91 1011.09 1011.18 1011.27 1011.41 1011.43 1011.43 1011.56 1011.99 1012.23 1012.27 1012.31 1012.49 1012.68 1012.93 1013.28 1013.65 1013.82 1014.26 1014.73 1014.95 1015.15 1015.28 1015.47 1015.70 1015.87 1016.06 1016.35
1004.50 1004.75 1004.84 1005.15 1005.24 1005.68 1006.25 1006.48 1006.55 1006.49 1006.98 1007.56 1008.34 1009.18 1009.80 1009.92 1010.08 1010.19 1010.21 1010.27 1010.50 1010.66 1010.88 1011.17 1011.32 1011.44 1011.56 1011.68 1011.88 1012.11 1012.36 1012.66 1012.80 1013.23 1013.67 1014.06 1014.44 1014.64 1014.90 1015.15 1015.30 1015.56 1015.73
1004.29 1004.93 1005.15 1005.35 1005.29 1005.63 1005.87 1006.11 1006.10 1006.44 1006.83 1007.24 1007.72 1008.11 1008.42 1008.63 1008.74 1008.90 1009.17 1009.36 1009.60 1009.89 1010.08 1010.31 1010.50 1010.59 1010.74 1010.97 1011.04 1011.22 1011.48 1011.58 1011.78 1012.15 1012.50 1013.02 1013.41 1013.60 1013.94 1014.36 1014.62 1014.75 1014.91
1004.68 1005.03 1005.04 1005.10 1005.26 1005.55 1005.61 1005.61 1006.07 1006.22 1006.47 1006.73 1006.90 1007.15 1007.28 1007.45 1007.70 1007.98 1008.36 1008.71 1008.71 1008.95 1009.14 1009.39 1009.56 1009.58 1009.81 1009.98 1010.25 1010.41 1010.51 1010.69 1011.00 1011.12 1011.57 1012.03 1012.29 1012.57 1012.88 1013.05 1013.44 1013.78 1014.05
1005.52 1005.71 1005.68 1005.56 1005.51 1005.46 1005.62 1005.88 1005.94 1005.99 1005.93 1006.26 1006.46 1006.69 1006.95 1007.17 1007.52 1007.78 1007.89 1007.95 1008.22 1008.51 1008.59 1008.70 1008.67 1008.83 1008.92 1009.18 1009.34 1009.41 1009.67 1010.06 1010.29 1010.37 1010.56 1011.03 1011.41 1011.83 1012.17 1012.36 1012.54 1012.96 1013.09
Thickness
5782 5779 5779 5781 5767 5764 5764 5763 5761 5763 5759 5756 5754 5751 5751 5749 5748 5746 5748 5752 5755 5759 5762 5762 5762 5763 5760 5760 5762 5762 5759 5757 5750 5755 5759 5764 5766 5766 5766 5764 5763 5763 5763
5785 5783 5780 5775 5769 5766 5765 5764 5763 5764 5762 5757 5752 5748 5748 5747 5744 5743 5745 5747 5752 5755 5758 5758 5759 5761 5759 5759 5760 5761 5762 5762 5757 5755 5759 5762 5763 5765 5766 5766 5766 5767 5767
5785 5781 5775 5770 5769 5768 5768 5766 5766 5764 5761 5757 5752 5748 5747 5747 5746 5747 5747 5748 5749 5753 5756 5757 5761 5759 5755 5757 5759 5761 5761 5761 5761 5757 5757 5761 5763 5764 5763 5765 5767 5767 5767
5780 5777 5773 5769 5770 5770 5769 5767 5765 5762 5760 5758 5753 5749 5748 5747 5746 5746 5748 5748 5748 5747 5750 5754 5756 5757 5756 5756 5756 5759 5761 5758 5758 5754 5754 5755 5758 5760 5760 5757 5756 5759 5760
5778 5773 5772 5771 5770 5771 5769 5766 5763 5759 5757 5755 5751 5749 5747 5746 5745 5745 5746 5746 5746 5744 5747 5748 5749 5750 5750 5752 5752 5754 5758 5756 5755 5753 5751 5751 5751 5751 5751 5752 5751 5751 5750
5778 5774 5772 5770 5769 5767 5765 5762 5759 5756 5753 5750 5747 5747 5745 5743 5742 5745 5745 5744 5745 5744 5742 5742 5740 5742 5742 5744 5745 5749 5751 5750 5751 5748 5744 5744 5744 5746 5746 5744 5743 5741 5738
5781 5778 5774 5772 5770 5766 5763 5760 5756 5752 5749 5745 5741 5739 5738 5738 5739 5741 5743 5744 5743 5742 5741 5739 5738 5735 5735 5736 5737 5740 5743 5746 5748 5746 5742 5741 5740 5742 5741 5737 5735 5733 5731
5780 5780 5778 5773 5770 5767 5762 5758 5754 5749 5744 5740 5737 5735 5733 5731 5733 5736 5737 5738 5737 5737 5737 5735 5733 5730 5731 5731 5731 5731 5734 5737 5740 5743 5742 5740 5740 5737 5734 5732 5730 5727 5725
5782 5779 5779 5776 5767 5762 5758 5754 5750 5745 5740 5736 5732 5732 5730 5728 5729 5731 5731 5731 5728 5726 5726 5725 5725 5725 5725 5727 5727 5726 5726 5727 5731 5734 5735 5734 5733 5730 5727 5724 5721 5719 5716
5786 5781 5776 5772 5769 5763 5754 5747 5747 5746 5742 5736 5731 5729 5728 5725 5724 5725 5724 5721 5717 5714 5715 5716 5717 5719 5719 5720 5719 5718 5719 5719 5721 5723 5722 5722 5722 5721 5720 5719 5716 5710 5707
5788 5777 5770 5765 5754 5746 5746 5744 5736 5733 5733 5727 5725 5722 5720 5719 5717 5717 5716 5714 5712 5707 5704 5706 5708 5709 5709 5711 5710 5707 5709 5709 5711 5713 5713 5712 5710 5710 5708 5707 5706 5704 5698
5774 5765 5755 5748 5737 5735 5734 5733 5733 5731 5724 5722 5717 5713 5713 5711 5711 5711 5708 5705 5702 5699 5696 5696 5697 5698 5700 5701 5699 5697 5698 5699 5699 5701 5700 5699 5699 5698 5697 5696 5696 5695 5693
5756 5743 5736 5718 5721 5723 5723 5722 5723 5725 5721 5720 5715 5712 5709 5708 5704 5701 5700 5697 5690 5686 5687 5688 5688 5687 5687 5689 5690 5689 5689 5690 5691 5690 5688 5687 5687 5688 5688 5686 5685 5683 5682
5729 5720 5710 5725 5710 5701 5712 5715 5719 5723 5718 5714 5711 5709 5706 5703 5699 5695 5692 5688 5683 5677 5677 5680 5677 5678 5679 5678 5679 5679 5679 5679 5681 5679 5678 5675 5676 5677 5675 5673 5670 5670 5667
5753 5752 5735 5724 5718 5710 5708 5711 5713 5717 5718 5716 5710 5707 5701 5699 5697 5693 5687 5682 5678 5672 5671 5671 5666 5666 5669 5668 5667 5666 5667 5668 5668 5667 5667 5667 5664 5664 5664 5661 5659 5657 5657
5741 5737 5735 5731 5725 5718 5715 5705 5702 5707 5708 5709 5704 5701 5695 5696 5692 5688 5683 5678 5675 5669 5665 5663 5661 5663 5663 5661 5660 5659 5661 5661 5657 5656 5656 5656 5655 5654 5652 5649 5647 5647 5643
5730 5724 5719 5719 5714 5714 5709 5703 5700 5695 5696 5695 5694 5691 5687 5687 5682 5679 5676 5670 5665 5662 5662 5660 5658 5659 5659 5656 5653 5659 5657 5653 5650 5648 5648 5647 5645 5642 5640 5636 5634 5633 5629
5717 5713 5710 5706 5705 5701 5699 5693 5696 5697 5689 5682 5678 5678 5677 5675 5671 5670 5667 5663 5657 5653 5652 5651 5651 5650 5651 5650 5650 5650 5647 5644 5641 5640 5638 5637 5634 5630 5629 5626 5622 5620 5614
5715 5707 5700 5692 5692 5680 5681 5683 5682 5685 5679 5674 5668 5667 5664 5661 5660 5656 5655 5657 5653 5650 5647 5647 5646 5645 5645 5644 5643 5641 5638 5635 5634 5630 5628 5627 5623 5619 5617 5613 5609 5606 5602
5707 5701 5697 5691 5689 5688 5677 5671 5675 5672 5670 5668 5663 5662 5655 5652 5652 5649 5646 5646 5645 5648 5648 5644 5642 5640 5638 5636 5634 5631 5627 5625 5623 5621 5618 5615 5613 5609 5604 5601 5598 5595 5593
5693 5690 5687 5685 5683 5676 5675 5672 5667 5662 5659 5659 5656 5654 5650 5648 5646 5643 5640 5637 5640 5640 5638 5634 5633 5631 5630 5628 5625 5622 5617 5615 5613 5610 5607 5603 5600 5596 5594 5592 5589 5587 5584
5684 5685 5684 5681 5680 5673 5667 5663 5659 5665 5657 5653 5651 5645 5637 5636 5635 5635 5634 5633 5633 5633 5632 5627 5626 5626 5625 5623 5621 5618 5614 5609 5606 5601 5596 5593 5589 5587 5584 5581 5579 5576 5574
5682 5680 5678 5673 5672 5667 5660 5659 5658 5657 5654 5649 5644 5637 5631 5633 5633 5632 5632 5631 5628 5627 5624 5622 5621 5619 5618 5616 5614 5610 5607 5602 5599 5594 5589 5585 5581 5578 5575 5572 5570 5567 5565
5676 5670 5667 5666 5667 5662 5657 5654 5654 5650 5646 5643 5639 5636 5632 5632 5632 5632 5628 5626 5623 5621 5618 5614 5612 5611 5609 5607 5606 5603 5599 5597 5594 5590 5586 5581 5577 5574 5571 5566 5562 5560 5559
5665 5662 5660 5659 5658 5653 5651 5650 5645 5642 5641 5640 5638 5636 5635 5631 5629 5627 5623 5619 5618 5615 5613 5609 5606 5604 5602 5601 5598 5596 5593 5591 5587 5585 5581 5577 5574 5570 5567 5564 5559 5554 5551
5649 5645 5643 5643 5644 5645 5642 5638 5637 5636 5635 5632 5631 5628 5625 5622 5619 5617 5615 5613 5609 5605 5604 5602 5600 5597 5595 5592 5589 5588 5586 5583 5579 5577 5573 5569 5564 5559 5556 5553 5551 5547 5545